Vertical_Velocity
2 2 -2 -3 1 1 -5 0 1 -0 -0 -3 -0 1 -2 -1 -3 -1 -2 -0 0 -2 -1 -1 1 -2 2 -1 -0 -4 3 -1 -2 1 1 1 -0 -0 0 -1 1 -0 1
6 -1 2 2 8 4 -3 -1 -1 -2 3 -0 -0 -1 1 -1 -2 -1 -1 1 2 -3 2 -2 -0 -0 -2 -1 -1 4 0 -1 0 0 -3 -0 -1 -3 -0 2 -2 2 -2
4 -1 -6 3 -1 1 3 1 3 0 -0 1 0 3 -2 2 -4 0 0 -4 -2 -4 0 -1 -0 -5 -2 -4 2 -4 -3 3 -0 -0 3 -0 -6 -3 -2 -1 -4 1 -1
1 -10 3 0 -1 -3 1 3 2 -3 3 -1 0 -3 0 -3 2 1 -2 -2 -3 5 -4 2 1 -4 -1 -0 -2 -2 3 -1 2 2 1 -1 -1 -2 2 -3 -1 -0 -2
5 11 1 -4 -3 5 6 -5 -3 -1 -1 0 -1 2 1 0 0 -1 -2 2 3 -2 -1 4 -0 -4 3 -3 1 -2 4 1 2 -0 1 -1 0 0 0 0 -1 -0 1
12 3 10 -5 6 27 2 8 -3 -1 1 3 -1 1 4 -3 2 2 -2 -2 3 1 1 -0 -2 -3 -1 -5 1 -7 -3 1 -2 -0 -2 -2 -1 -0 -1 -0 -1 -2 -1
23 -0 2 -1 12 14 1 6 1 1 -2 -4 1 -1 -5 2 -1 -7 -4 1 -2 2 -0 -2 -0 -3 -1 -0 -4 -4 -1 -3 -1 -3 1 -0 -0 0 -0 -3 -3 1 -1
-5 -3 -0 -1 1 5 4 7 -1 4 -1 4 5 1 5 3 3 2 1 -2 0 1 0 -2 -1 -1 -1 -4 -2 -3 -2 -4 -2 -2 1 -3 -2 0 -2 1 -2 -5 -2
7 -7 6 7 1 2 7 -1 4 2 1 1 -0 2 1 3 -1 -0 1 0 8 2 -4 -0 -5 -1 1 0 -1 -1 -2 -1 -0 -4 -2 -1 -1 -2 -0 1 1 -1 -2
12 15 4 2 5 10 -0 -1 1 -0 4 3 6 -2 -3 -0 4 4 -2 4 1 -2 -7 -7 -1 -2 4 1 1 0 -1 -5 -2 2 -0 1 -1 1 -0 1 -0 0 -1
-1 -3 0 -1 0 2 -1 -3 2 1 -8 7 -4 5 -2 1 -2 6 4 0 -2 4 -2 -5 -2 1 -0 2 2 -1 -2 2 1 1 3 1 -2 0 -0 -1 -0 -0 2
-1 -2 1 2 11 -6 6 6 1 -6 -4 1 -1 -2 1 0 -1 4 6 2 3 5 0 1 -1 1 -3 -0 -3 -2 0 -0 2 1 -4 -1 1 -2 -0 -1 -3 -1 -3
-2 6 5 8 0 -4 -0 -5 -5 0 3 4 -1 -0 1 1 1 2 7 1 0 3 1 4 1 -3 -2 -1 -4 -2 -1 -2 0 2 -10 -2 -0 0 -2 -2 1 1 0
-1 -1 -2 -3 -7 2 -1 -3 1 2 3 0 0 1 -0 -4 -3 -7 3 -1 3 1 -0 -1 -2 -2 -2 -4 -5 -6 -4 -0 -3 0 -11 3 -1 -1 0 -1 -3 -1 2
-4 0 -2 -4 2 -4 4 1 3 1 4 4 -2 -0 -6 -3 -3 -9 -4 4 4 -0 -2 -2 -0 -2 -6 -7 -1 -2 -4 -5 -4 -4 -4 -2 -4 -3 -2 -2 0 -2 -3
-1 4 -3 2 -2 1 2 0 3 2 2 4 -4 -1 3 4 -4 -23 -5 -0 3 0 -1 -1 -2 -3 -4 -1 -2 -2 -3 -2 -4 -3 -1 -13 -0 -4 -2 -1 -4 -2 -1
-4 0 -4 3 4 1 2 -1 -0 13 -20 -14 3 10 6 2 -4 -9 7 5 4 1 -0 -0 0 -4 -0 -2 -2 -4 -2 -4 0 -1 3 3 -3 -3 -1 -2 -0 -0 -3
-0 -2 -2 2 2 7 8 8 -44 -13 -6 -1 2 2 -1 6 0 2 2 0 1 -2 -2 -1 -4 1 -4 -2 -3 -2 -1 1 -3 -2 -1 6 3 5 -8 -1 -1 -3 -3
-4 -2 2 3 6 -1 -6 2 -4 1 -1 11 4 -3 1 1 -6 2 -3 0 1 -3 -0 -1 -4 1 -0 -1 1 -1 -1 0 -1 1 -0 -1 -4 1 2 -10 -0 -3 -1
2 -2 0 1 0 -2 -5 -4 -0 -2 7 2 -2 -2 -5 -5 -1 -0 -1 -1 -1 1 -1 1 -1 -4 -5 -5 3 -1 -4 -4 -2 1 -2 1 -0 -2 3 1 3 -2 0
1 1 3 -2 -1 -1 0 0 -3 -2 -4 -8 -8 -6 -5 -3 -0 2 2 1 3 0 2 -2 -2 -2 -1 -3 -0 1 3 -2 -6 -2 0 0 1 -1 -1 -2 3 -2 -1
1 1 1 -2 -3 -2 -1 1 -3 -9 -8 -3 -1 1 0 2 1 -1 2 -0 -3 -0 -2 -0 1 2 3 -13 -4 1 -3 4 1 -2 -0 -5 -3 -6 -1 -5 -4 -0 -0
-0 -1 -0 -2 -0 1 1 -1 -11 3 3 2 2 1 -1 0 0 -1 -2 -1 -0 -1 1 -2 -5 -4 2 1 -7 -11 -9 -2 -10 3 -2 -6 -10 -8 -5 -7 -3 -0 -0
-1 -1 -0 -2 -3 -0 -3 -2 -2 0 -2 -1 -0 -4 -1 -4 -3 -1 -2 -1 -2 -1 -1 -3 -3 1 -2 -3 -6 -2 -5 -4 -5 -16 4 3 1 -1 0 -3 -7 0 -1
-3 -3 2 0 -4 -3 0 1 -0 -0 -0 -3 -2 0 -1 -0 -0 -3 -4 -3 -1 -1 -2 1 -3 -3 -0 -2 -3 -4 -1 -3 -1 -4 -8 1 0 -1 -7 -8 -3 -4 -1
-2 0 -2 -1 -3 2 3 1 1 -0 -1 0 1 1 -0 -1 0 -0 -2 -2 -3 -4 -6 -5 -5 -8 -3 4 1 -4 -5 -1 1 -2 -3 0 -10 9 -0 -1 -4 -6 -5
Height
3175 3177 3180 3182 3183 3186 3189 3191 3191 3192 3192 3193 3193 3192 3191 3190 3189 3188 3187 3186 3185 3184 3183 3183 3182 3181 3180 3179 3178 3177 3176 3174 3173 3171 3169 3168 3168 3167 3167 3167 3167 3166 3165
3174 3176 3180 3182 3184 3186 3188 3190 3191 3192 3192 3193 3193 3192 3190 3190 3189 3187 3186 3185 3185 3185 3184 3183 3182 3181 3181 3179 3178 3177 3176 3174 3173 3171 3169 3167 3166 3165 3165 3165 3165 3164 3164
3174 3177 3181 3181 3184 3186 3189 3190 3191 3191 3192 3192 3191 3190 3189 3189 3189 3187 3186 3186 3185 3185 3184 3184 3183 3182 3181 3179 3178 3176 3175 3173 3171 3169 3168 3167 3164 3164 3164 3163 3163 3162 3162
3175 3178 3181 3182 3184 3187 3189 3190 3190 3191 3191 3191 3191 3190 3189 3189 3189 3188 3187 3186 3186 3186 3184 3184 3183 3182 3181 3179 3177 3176 3174 3172 3171 3169 3167 3166 3164 3163 3163 3162 3161 3160 3160
3172 3177 3181 3182 3184 3186 3188 3188 3190 3191 3191 3190 3190 3190 3190 3190 3190 3189 3188 3187 3186 3186 3185 3185 3183 3183 3181 3179 3177 3175 3174 3172 3169 3167 3166 3165 3163 3161 3161 3160 3160 3159 3158
3171 3177 3180 3181 3183 3184 3187 3187 3188 3190 3190 3190 3190 3191 3191 3191 3190 3189 3189 3188 3187 3186 3185 3184 3183 3183 3181 3179 3177 3175 3173 3171 3169 3168 3165 3163 3162 3160 3159 3159 3158 3158 3158
3165 3174 3179 3182 3183 3185 3186 3187 3188 3188 3189 3189 3189 3191 3191 3191 3190 3190 3189 3189 3188 3186 3185 3183 3183 3181 3180 3178 3177 3175 3173 3171 3169 3167 3165 3162 3160 3158 3157 3156 3156 3156 3156
3171 3176 3179 3182 3185 3186 3187 3187 3188 3188 3188 3189 3189 3190 3191 3190 3191 3190 3189 3188 3188 3186 3185 3183 3181 3180 3178 3176 3175 3172 3171 3170 3168 3166 3165 3162 3159 3157 3155 3153 3152 3152 3153
3173 3177 3179 3181 3184 3187 3186 3186 3186 3187 3188 3189 3188 3190 3190 3190 3190 3190 3189 3188 3186 3185 3183 3182 3180 3179 3176 3174 3173 3171 3169 3167 3166 3164 3163 3161 3159 3156 3154 3152 3149 3149 3149
3173 3176 3179 3181 3184 3185 3184 3185 3186 3186 3186 3187 3188 3189 3190 3191 3191 3189 3189 3187 3185 3183 3181 3180 3179 3178 3175 3173 3171 3169 3167 3165 3164 3162 3160 3158 3156 3154 3152 3150 3148 3145 3145
3174 3178 3179 3180 3183 3183 3183 3184 3184 3185 3186 3187 3188 3189 3189 3189 3190 3190 3188 3186 3184 3182 3180 3178 3177 3175 3173 3171 3169 3166 3164 3163 3162 3159 3157 3154 3153 3151 3149 3147 3146 3143 3141
3176 3178 3178 3179 3180 3181 3182 3182 3183 3185 3187 3186 3185 3188 3187 3188 3188 3188 3187 3185 3183 3181 3179 3176 3174 3172 3170 3168 3165 3163 3161 3159 3158 3156 3152 3151 3149 3147 3146 3143 3142 3140 3138
3175 3177 3177 3179 3180 3182 3182 3184 3183 3184 3186 3186 3187 3187 3185 3185 3185 3185 3185 3183 3181 3178 3176 3173 3171 3169 3167 3164 3161 3159 3157 3155 3153 3151 3147 3147 3145 3143 3141 3140 3137 3135 3133
3175 3177 3178 3180 3182 3182 3182 3183 3185 3185 3187 3187 3187 3185 3184 3182 3181 3181 3181 3179 3177 3175 3173 3171 3167 3165 3162 3159 3156 3153 3151 3150 3148 3146 3141 3141 3140 3138 3135 3133 3132 3130 3127
3176 3178 3179 3181 3181 3182 3182 3183 3184 3185 3186 3186 3186 3184 3182 3180 3178 3176 3176 3175 3173 3171 3169 3166 3163 3160 3157 3153 3149 3146 3143 3141 3140 3139 3136 3133 3132 3129 3128 3127 3124 3123 3121
3176 3178 3179 3180 3180 3181 3181 3182 3182 3183 3182 3182 3181 3180 3178 3174 3171 3169 3171 3170 3168 3166 3164 3160 3157 3154 3150 3147 3143 3139 3136 3132 3129 3127 3126 3120 3119 3119 3118 3117 3116 3115 3113
3176 3177 3178 3179 3180 3181 3180 3179 3179 3181 3181 3178 3176 3173 3172 3169 3167 3166 3166 3165 3163 3160 3157 3153 3150 3146 3143 3139 3135 3131 3128 3123 3119 3116 3116 3115 3110 3106 3108 3106 3105 3105 3105
3176 3177 3178 3179 3180 3180 3180 3178 3176 3177 3173 3174 3174 3171 3168 3166 3163 3161 3162 3160 3157 3154 3151 3147 3143 3139 3133 3130 3126 3122 3118 3114 3109 3107 3105 3104 3102 3100 3094 3094 3095 3094 3094
3175 3176 3177 3178 3178 3177 3176 3175 3170 3171 3170 3171 3171 3168 3166 3164 3161 3160 3158 3155 3152 3148 3144 3140 3134 3130 3126 3120 3117 3112 3108 3106 3103 3100 3094 3091 3087 3085 3086 3078 3082 3082 3080
3173 3174 3175 3175 3175 3174 3173 3171 3171 3170 3170 3169 3166 3164 3162 3160 3158 3156 3152 3149 3145 3140 3135 3130 3124 3119 3114 3107 3106 3103 3099 3094 3091 3089 3083 3081 3077 3071 3070 3067 3064 3065 3061
3170 3171 3172 3172 3171 3169 3169 3168 3168 3167 3166 3164 3161 3159 3158 3156 3153 3150 3145 3140 3136 3130 3125 3119 3114 3110 3105 3098 3095 3092 3089 3085 3080 3077 3073 3069 3067 3062 3059 3056 3054 3049 3048
3167 3168 3168 3168 3167 3166 3166 3165 3164 3161 3160 3158 3157 3155 3153 3150 3146 3142 3137 3132 3126 3121 3114 3109 3105 3101 3098 3088 3084 3082 3078 3078 3076 3068 3063 3060 3055 3049 3047 3043 3039 3038 3036
3165 3166 3166 3164 3163 3163 3161 3159 3157 3157 3157 3155 3153 3149 3146 3142 3138 3132 3127 3122 3117 3111 3106 3100 3095 3090 3087 3083 3073 3070 3068 3065 3059 3059 3055 3049 3046 3041 3037 3032 3029 3026 3024
3161 3161 3160 3160 3159 3158 3156 3156 3155 3155 3152 3150 3147 3142 3138 3133 3128 3123 3117 3112 3106 3102 3097 3091 3086 3082 3076 3073 3067 3064 3057 3053 3047 3040 3042 3038 3033 3029 3025 3021 3017 3016 3014
3158 3158 3157 3157 3156 3154 3154 3153 3151 3149 3146 3143 3139 3134 3129 3123 3118 3112 3106 3101 3097 3092 3086 3082 3076 3071 3067 3061 3057 3052 3048 3043 3037 3032 3026 3024 3021 3018 3013 3009 3006 3004 3003
3154 3154 3154 3153 3152 3151 3150 3148 3146 3143 3140 3136 3130 3125 3119 3114 3109 3104 3097 3092 3087 3082 3076 3070 3065 3059 3055 3050 3046 3041 3036 3032 3028 3024 3019 3015 3012 3010 3005 3001 2997 2993 2991